K9DC Weather Reports


Display with metric or nautical units.
time (UTC)temp
F
wind
direction
speed
MPH
gust
MPH
rain 1hr
in
rain 24hr
in
rain mn
in
humidity
%
barometer
mb
20260507051503 43 319 4.0 12.0 0.00 0.05 0.00 79 1014.7
20260507051003 43 317 4.0 12.0 0.00 0.05 0.00 80 1014.7
20260507050504 43 315 3.0 10.0 0.00 0.05 0.00 80 1014.7
20260507050004 43 316 3.0 9.0 0.00 0.05 0.00 80 1014.6
20260507045503 43 316 2.0 9.0 0.00 0.05 0.00 80 1014.6
20260507045005 44 316 2.0 7.0 0.00 0.05 0.00 80 1014.6
20260507044504 44 315 2.0 5.0 0.00 0.05 0.00 80 1014.7
20260507044005 44 315 2.0 5.0 0.00 0.05 0.00 79 1014.6
20260507043506 44 314 2.0 7.0 0.00 0.05 0.00 79 1014.6
20260507043003 44 316 1.0 7.0 0.00 0.05 0.00 79 1014.6
20260507042504 44 318 1.0 4.0 0.00 0.05 0.00 79 1014.5
20260507042003 44 318 1.0 4.0 0.00 0.05 0.00 78 1014.5
20260507041503 44 318 2.0 5.0 0.00 0.05 0.00 78 1014.5
20260507041004 44 318 2.0 5.0 0.00 0.05 0.00 78 1014.5
20260507040504 45 318 2.0 5.0 0.00 0.05 0.00 78 1014.6
20260507040004 45 318 2.0 5.0 0.00 0.05 0.00 77 1014.6
20260507035503 45 318 2.0 5.0 0.00 0.05 0.05 77 1014.6
20260507035005 45 320 2.0 5.0 0.00 0.05 0.05 77 1014.6
20260507034506 45 322 1.0 4.0 0.00 0.06 0.05 77 1014.6
20260507034003 45 322 1.0 4.0 0.00 0.06 0.05 77 1014.6
20260507033504 45 322 1.0 2.0 0.00 0.06 0.05 76 1014.5
20260507033004 46 321 0.0 2.0 0.00 0.06 0.05 76 1014.5
20260507032504 46 321 0.0 2.0 0.00 0.06 0.05 76 1014.6
20260507032003 46 321 1.0 2.0 0.00 0.06 0.05 75 1014.6
20260507031503 46 321 1.0 3.0 0.00 0.06 0.05 75 1014.5
20260507031004 46 321 1.0 3.0 0.00 0.06 0.05 74 1014.5
20260507030504 46 321 1.0 3.0 0.00 0.06 0.05 74 1014.5
20260507030004 46 321 1.0 3.0 0.00 0.06 0.05 73 1014.5
20260507025504 47 321 1.0 4.0 0.00 0.06 0.05 73 1014.5
20260507025004 47 321 1.0 4.0 0.00 0.07 0.05 73 1014.4
20260507024505 47 321 0.0 4.0 0.00 0.07 0.05 72 1014.4
20260507024003 47 321 0.0 4.0 0.00 0.07 0.05 72 1014.3
20260507023503 48 320 1.0 3.0 0.00 0.07 0.05 71 1014.3
20260507023003 48 320 0.0 3.0 0.00 0.07 0.05 71 1014.3
20260507022505 48 320 0.0 4.0 0.00 0.07 0.05 70 1014.3
20260507022003 48 320 0.0 4.0 0.00 0.07 0.05 69 1014.3
20260507021505 48 320 0.0 3.0 0.00 0.07 0.05 69 1014.3
20260507021004 49 320 0.0 3.0 0.00 0.07 0.05 68 1014.1
20260507020503 49 320 0.0 3.0 0.00 0.07 0.05 67 1014.1
20260507020004 50 320 0.0 3.0 0.00 0.07 0.05 67 1014.2
20260507015503 50 321 1.0 3.0 0.00 0.07 0.05 67 1014.0
20260507015003 50 321 1.0 3.0 0.00 0.08 0.05 66 1014.1
20260507014505 50 321 1.0 3.0 0.00 0.08 0.05 65 1014.1
20260507014003 51 320 0.0 2.0 0.00 0.08 0.05 64 1014.0
20260507013503 51 320 0.0 2.0 0.00 0.08 0.05 63 1014.0
20260507013003 52 320 0.0 3.0 0.00 0.08 0.05 62 1014.0
20260507012504 52 321 1.0 3.0 0.00 0.08 0.05 62 1014.0
20260507012003 52 321 1.0 3.0 0.00 0.08 0.05 61 1014.0
20260507011503 53 321 1.0 3.0 0.00 0.08 0.05 60 1014.0
20260507011003 53 321 1.0 4.0 0.00 0.08 0.05 59 1013.9
20260507010504 54 322 2.0 5.0 0.00 0.08 0.05 58 1013.8
20260507010004 54 323 2.0 5.0 0.00 0.09 0.05 57 1013.8
20260507005503 54 324 2.0 5.0 0.00 0.09 0.05 56 1013.7
20260507005003 55 324 2.0 5.0 0.00 0.09 0.05 56 1013.7
20260507004503 55 325 2.0 7.0 0.00 0.09 0.05 54 1013.6
20260507004003 55 321 3.0 10.0 0.00 0.09 0.05 53 1013.6
20260507003504 55 317 3.0 10.0 0.00 0.09 0.05 52 1013.5
20260507003004 55 309 3.0 10.0 0.00 0.09 0.05 52 1013.4
20260507002503 55 306 4.0 11.0 0.00 0.09 0.05 50 1013.3
20260507002003 56 308 4.0 11.0 0.00 0.09 0.05 51 1013.3
20260507001504 56 312 5.0 12.0 0.00 0.09 0.05 50 1013.2
20260507001003 56 315 5.0 12.0 0.00 0.10 0.05 49 1013.2
20260507000503 56 309 3.0 12.0 0.00 0.10 0.05 50 1013.1
20260507000003 56 299 3.0 10.0 0.00 0.10 0.05 50 1013.0
20260506235503 56 297 5.0 10.0 0.00 0.10 0.05 49 1013.0
20260506235004 56 293 5.0 10.0 0.00 0.10 0.05 48 1012.9
20260506234504 57 305 6.0 14.0 0.00 0.10 0.05 47 1013.0
20260506234003 57 311 5.0 14.0 0.00 0.10 0.05 46 1013.0
20260506233503 57 292 5.0 13.0 0.00 0.11 0.05 47 1012.9
20260506233004 57 293 5.0 13.0 0.00 0.11 0.05 46 1013.1
20260506232504 57 311 4.0 12.0 0.00 0.11 0.05 48 1013.0
20260506232005 57 309 5.0 12.0 0.00 0.11 0.05 45 1013.1
20260506231504 57 306 4.0 12.0 0.00 0.11 0.05 46 1013.1
20260506231003 58 308 5.0 12.0 0.00 0.11 0.05 46 1013.0
20260506230503 58 309 6.0 16.0 0.00 0.11 0.05 46 1013.1
20260506230003 58 299 7.0 16.0 0.00 0.11 0.05 44 1013.1
20260506225505 58 294 7.0 15.0 0.00 0.12 0.05 44 1013.0
20260506225003 58 300 7.0 15.0 0.00 0.12 0.05 47 1013.0
20260506224503 58 304 5.0 14.0 0.00 0.12 0.05 46 1013.0
20260506224003 58 308 2.0 11.0 0.00 0.12 0.05 45 1013.0
20260506223504 58 297 5.0 13.0 0.00 0.12 0.05 47 1013.0
20260506223003 58 299 7.0 16.0 0.00 0.12 0.05 48 1013.1
20260506222503 58 297 5.0 16.0 0.00 0.13 0.05 51 1013.2
20260506222004 58 299 4.0 11.0 0.00 0.13 0.05 53 1013.3
20260506221505 58 315 5.0 10.0 0.00 0.13 0.05 55 1013.2
20260506221004 57 315 7.0 13.0 0.00 0.13 0.05 54 1013.3
20260506220503 57 314 6.0 13.0 0.00 0.13 0.05 53 1013.3
20260506220004 57 309 5.0 14.0 0.00 0.13 0.05 54 1013.4
20260506215504 57 301 5.0 14.0 0.01 0.14 0.05 55 1013.3
20260506215004 57 301 4.0 10.0 0.01 0.14 0.05 56 1013.3
20260506214503 57 309 5.0 13.0 0.01 0.14 0.05 55 1013.3
20260506214003 57 310 5.0 15.0 0.01 0.14 0.05 54 1013.3
20260506213504 58 314 5.0 15.0 0.01 0.14 0.05 52 1013.3
20260506213005 58 312 6.0 13.0 0.01 0.14 0.05 52 1013.3
20260506212504 58 306 7.0 13.0 0.01 0.15 0.05 52 1013.2
20260506212003 58 291 7.0 16.0 0.01 0.15 0.05 52 1013.1
20260506211503 58 282 7.0 16.0 0.01 0.15 0.05 53 1013.1
20260506211005 58 285 7.0 13.0 0.01 0.15 0.05 54 1013.1
20260506210504 58 291 6.0 13.0 0.01 0.15 0.05 54 1013.0
20260506210003 58 298 5.0 11.0 0.01 0.16 0.05 53 1013.0
20260506205504 58 286 5.0 10.0 0.00 0.15 0.04 52 1012.8
20260506205004 58 285 5.0 11.0 0.00 0.15 0.04 53 1012.9
20260506204505 58 296 5.0 12.0 0.00 0.16 0.04 52 1012.9
20260506204005 58 294 4.0 12.0 0.00 0.16 0.04 51 1012.9
20260506203504 58 295 5.0 12.0 0.00 0.16 0.04 51 1012.9
20260506203003 58 303 6.0 13.0 0.00 0.16 0.04 51 1012.9
20260506202504 58 302 5.0 13.0 0.00 0.16 0.04 51 1013.0
20260506202003 58 291 5.0 13.0 0.00 0.17 0.04 52 1012.9
20260506201505 58 278 4.0 10.0 0.00 0.17 0.04 54 1013.1
20260506201004 58 273 5.0 11.0 0.00 0.17 0.04 54 1013.1
20260506200503 58 287 6.0 12.0 0.00 0.18 0.04 53 1013.0
20260506200003 58 296 5.0 12.0 0.00 0.18 0.04 53 1013.1
20260506195505 58 307 4.0 11.0 0.00 0.18 0.04 54 1013.1
20260506195003 58 313 2.0 11.0 0.00 0.19 0.04 51 1013.2
20260506194503 58 301 1.0 6.0 0.00 0.19 0.04 54 1013.1
20260506194004 58 302 2.0 10.0 0.00 0.19 0.04 53 1013.2
20260506193504 58 281 4.0 10.0 0.00 0.20 0.04 51 1013.2
20260506193003 58 280 4.0 10.0 0.00 0.20 0.04 50 1013.2
20260506192503 58 290 3.0 10.0 0.00 0.20 0.04 53 1013.1
20260506192004 58 298 1.0 6.0 0.00 0.21 0.04 55 1013.2
20260506191503 58 300 1.0 6.0 0.00 0.21 0.04 54 1013.1
20260506191005 58 300 3.0 9.0 0.00 0.22 0.04 54 1013.1
20260506190503 58 287 4.0 9.0 0.00 0.22 0.04 53 1013.1
20260506190004 58 280 4.0 9.0 0.00 0.23 0.04 52 1013.1
20260506185503 58 270 5.0 10.0 0.00 0.23 0.04 53 1013.0
20260506185005 57 262 5.0 11.0 0.00 0.24 0.04 53 1013.1
20260506184505 57 277 4.0 11.0 0.00 0.24 0.04 52 1013.2
20260506184004 57 288 3.0 8.0 0.00 0.24 0.04 54 1013.1
20260506183503 57 271 3.0 10.0 0.00 0.25 0.04 55 1013.1
20260506183003 58 255 2.0 10.0 0.00 0.25 0.04 53 1013.1
20260506182504 58 314 0.0 5.0 0.00 0.26 0.04 54 1013.0
20260506182004 58 310 1.0 9.0 0.00 0.26 0.04 53 1013.0
20260506181505 58 303 1.0 10.0 0.00 0.27 0.04 53 1013.0
20260506181003 58 302 1.0 10.0 0.00 0.27 0.04 54 1013.0
20260506180503 58 304 0.0 7.0 0.00 0.28 0.04 55 1013.1
20260506180004 57 280 1.0 8.0 0.00 0.28 0.04 53 1013.1
20260506175504 57 291 1.0 8.0 0.00 0.29 0.04 54 1013.2
20260506175003 57 306 0.0 4.0 0.00 0.29 0.04 53 1013.2
20260506174503 57 313 0.0 3.0 0.00 0.30 0.04 53 1013.2
20260506174004 57 313 0.0 3.0 0.00 0.30 0.04 53 1013.2
20260506173505 57 306 1.0 5.0 0.00 0.31 0.04 53 1013.2
20260506173004 57 298 1.0 5.0 0.00 0.31 0.04 52 1013.2
20260506172503 57 261 1.0 5.0 0.00 0.32 0.04 54 1013.3
20260506172003 57 268 1.0 5.0 0.00 0.32 0.04 54 1013.2
20260506171503 57 291 1.0 7.0 0.00 0.32 0.04 53 1013.2
20260506171005 57 293 0.0 7.0 0.00 0.32 0.04 54 1013.1
20260506170504 57 0 0.0 0.0 0.00 0.33 0.04 53 1013.2
20260506170003 57 0 0.0 0.0 0.00 0.33 0.04 52 1013.2
20260506165503 57 276 1.0 6.0 0.00 0.33 0.04 54 1013.3
20260506165004 57 276 1.0 7.0 0.00 0.33 0.04 54 1013.3
20260506164504 57 275 0.0 7.0 0.00 0.34 0.04 52 1013.3
20260506164003 57 0 0.0 0.0 0.00 0.34 0.04 54 1013.4
20260506163503 57 0 0.0 0.0 0.00 0.34 0.04 54 1013.2
20260506163004 57 0 0.0 0.0 0.00 0.34 0.04 52 1013.1
20260506162504 57 0 0.0 0.0 0.00 0.34 0.04 54 1013.0
20260506162003 57 0 0.0 0.0 0.00 0.34 0.04 56 1012.8
20260506161503 57 0 0.0 0.0 0.00 0.34 0.04 53 1012.9
20260506161003 56 0 0.0 0.0 0.00 0.34 0.04 57 1012.8
20260506160505 56 0 0.0 0.0 0.00 0.34 0.04 56 1012.7
20260506160004 56 0 0.0 0.0 0.00 0.34 0.04 60 1012.8
20260506155503 56 0 0.0 0.0 0.00 0.34 0.04 58 1013.0
20260506155003 56 0 0.0 0.0 0.00 0.34 0.04 61 1013.1
20260506154503 55 0 0.0 0.0 0.00 0.34 0.04 56 1013.1
20260506154004 56 0 0.0 0.0 0.00 0.35 0.04 58 1013.0
20260506153504 56 0 0.0 0.0 0.00 0.35 0.04 59 1012.8
20260506153003 56 0 0.0 0.0 0.00 0.36 0.04 60 1012.9
20260506152503 56 0 0.0 0.0 0.00 0.38 0.04 59 1012.8
20260506152004 56 0 0.0 0.0 0.00 0.38 0.04 61 1012.7
20260506151503 56 0 0.0 0.0 0.00 0.38 0.04 60 1012.7
20260506151004 56 0 0.0 0.0 0.00 0.38 0.04 59 1012.5
20260506150503 55 304 0.0 4.0 0.00 0.38 0.04 63 1012.8
20260506150004 55 311 1.0 7.0 0.00 0.38 0.04 68 1013.0
20260506145504 55 313 1.0 7.0 0.00 0.38 0.04 67 1012.9
20260506145004 54 316 0.0 4.0 0.00 0.39 0.04 68 1012.8
20260506144503 54 0 0.0 0.0 0.00 0.39 0.04 68 1012.8
20260506144004 53 0 0.0 0.0 0.00 0.39 0.04 73 1012.7
20260506143503 53 0 0.0 0.0 0.00 0.39 0.04 78 1012.5
20260506143004 52 323 0.0 2.0 0.00 0.39 0.04 82 1012.4
20260506142504 52 323 0.0 2.0 0.00 0.39 0.04 84 1012.5
20260506142004 51 328 1.0 5.0 0.00 0.39 0.04 86 1012.5
20260506141504 50 307 2.0 11.0 0.00 0.39 0.04 87 1012.5
20260506141003 50 301 1.0 11.0 0.00 0.39 0.04 89 1012.4
20260506140504 50 0 0.0 0.0 0.00 0.39 0.04 89 1012.2
20260506140004 50 0 0.0 0.0 0.00 0.39 0.04 89 1012.2
20260506135504 50 313 0.0 2.0 0.00 0.39 0.04 89 1012.3
20260506135003 49 301 1.0 8.0 0.00 0.39 0.04 89 1012.3
20260506134503 49 284 1.0 8.0 0.00 0.39 0.04 89 1012.2
20260506134004 49 280 1.0 6.0 0.00 0.39 0.04 89 1012.1
20260506133503 49 280 1.0 3.0 0.01 0.39 0.04 89 1012.0
20260506133004 49 280 1.0 6.0 0.01 0.39 0.04 89 1011.9
20260506132504 48 280 1.0 6.0 0.01 0.39 0.04 89 1012.1
20260506132003 48 280 1.0 4.0 0.01 0.39 0.04 89 1012.2
20260506131505 48 280 1.0 4.0 0.01 0.39 0.04 89 1012.1
20260506131005 49 280 1.0 3.0 0.01 0.39 0.04 89 1012.0
20260506130503 48 279 1.0 6.0 0.01 0.39 0.04 89 1011.8
20260506130004 48 279 1.0 6.0 0.01 0.39 0.04 89 1012.2
20260506125504 48 278 1.0 6.0 0.01 0.39 0.04 89 1012.5
20260506125005 48 0 0.0 0.0 0.01 0.39 0.04 89 1012.3
20260506124504 48 0 0.0 0.0 0.01 0.39 0.04 90 1012.0
20260506124003 48 0 0.0 0.0 0.01 0.39 0.04 89 1012.0
20260506123504 48 0 0.0 0.0 0.00 0.38 0.03 89 1012.0
20260506123004 48 0 0.0 0.0 0.00 0.38 0.03 89 1011.7
20260506122503 48 0 0.0 0.0 0.00 0.38 0.03 90 1011.6
20260506122004 47 0 0.0 0.0 0.00 0.38 0.03 89 1011.8
20260506121505 47 0 0.0 0.0 0.00 0.38 0.03 89 1011.8
20260506121005 47 0 0.0 0.0 0.00 0.38 0.03 89 1011.7
20260506120503 47 0 0.0 0.0 0.00 0.38 0.03 89 1011.4
20260506120003 46 0 0.0 0.0 0.00 0.38 0.03 89 1011.3
20260506115503 46 0 0.0 0.0 0.01 0.38 0.03 89 1011.4
20260506115005 46 0 0.0 0.0 0.01 0.38 0.03 89 1011.3
20260506114504 46 0 0.0 0.0 0.01 0.38 0.03 89 1010.9
20260506114003 46 0 0.0 0.0 0.01 0.38 0.03 89 1010.7
20260506113503 46 0 0.0 0.0 0.01 0.38 0.03 89 1010.8
20260506113005 46 0 0.0 0.0 0.01 0.38 0.03 89 1010.9
20260506112503 46 0 0.0 0.0 0.01 0.38 0.03 89 1011.1
20260506112003 46 0 0.0 0.0 0.01 0.38 0.03 89 1010.8
20260506111504 46 0 0.0 0.0 0.01 0.38 0.03 89 1010.4
20260506111004 46 0 0.0 0.0 0.01 0.38 0.03 89 1010.4
20260506110505 46 0 0.0 0.0 0.01 0.38 0.03 89 1010.2
20260506110004 46 0 0.0 0.0 0.01 0.38 0.03 89 1010.4
20260506105503 46 0 0.0 0.0 0.00 0.37 0.02 89 1010.2
20260506105004 46 0 0.0 0.0 0.00 0.37 0.02 89 1010.2
20260506104505 47 0 0.0 0.0 0.00 0.37 0.02 89 1010.0
20260506104004 47 0 0.0 0.0 0.00 0.37 0.02 89 1009.8
20260506103504 47 0 0.0 0.0 0.00 0.37 0.02 89 1009.6
20260506103004 47 0 0.0 0.0 0.00 0.37 0.02 89 1009.3
20260506102503 47 0 0.0 0.0 0.00 0.37 0.02 89 1009.2
20260506102003 47 0 0.0 0.0 0.00 0.37 0.02 89 1009.4
20260506101504 47 0 0.0 0.0 0.00 0.37 0.02 89 1009.4
20260506101003 47 0 0.0 0.0 0.01 0.37 0.02 89 1009.4
20260506100503 47 0 0.0 0.0 0.01 0.37 0.02 89 1009.4
20260506100004 47 0 0.0 0.0 0.01 0.37 0.02 89 1009.8
20260506095504 47 0 0.0 0.0 0.01 0.37 0.02 89 1009.9
20260506095004 47 0 0.0 0.0 0.01 0.37 0.02 89 1010.2
20260506094503 47 0 0.0 0.0 0.01 0.37 0.02 89 1010.1
20260506094003 47 0 0.0 0.0 0.01 0.37 0.02 89 1009.7
20260506093504 47 0 0.0 0.0 0.01 0.37 0.02 89 1009.5
20260506093005 47 0 0.0 0.0 0.01 0.37 0.02 89 1009.1
20260506092504 47 0 0.0 0.0 0.01 0.37 0.02 89 1009.0
20260506092003 47 0 0.0 0.0 0.01 0.37 0.02 89 1009.5
20260506091503 47 0 0.0 0.0 0.01 0.37 0.02 89 1009.7
20260506091003 47 0 0.0 0.0 0.00 0.36 0.01 89 1009.2
20260506090504 47 0 0.0 0.0 0.00 0.36 0.01 89 1009.1
20260506090004 47 0 0.0 0.0 0.00 0.36 0.01 89 1009.1
20260506085503 47 0 0.0 0.0 0.00 0.36 0.01 89 1009.1
20260506085003 47 0 0.0 0.0 0.01 0.36 0.01 89 1008.8
20260506084503 47 0 0.0 0.0 0.01 0.37 0.01 89 1009.1
20260506084005 47 0 0.0 0.0 0.01 0.38 0.01 89 1009.1
20260506083504 47 0 0.0 0.0 0.01 0.38 0.01 89 1008.7
20260506083003 47 0 0.0 0.0 0.01 0.39 0.01 89 1008.6
20260506082503 47 0 0.0 0.0 0.01 0.39 0.01 89 1008.9
20260506082003 47 0 0.0 0.0 0.01 0.40 0.01 89 1009.2
20260506081504 47 0 0.0 0.0 0.01 0.41 0.01 89 1009.6
20260506081004 47 0 0.0 0.0 0.01 0.44 0.01 89 1009.3
20260506080503 47 0 0.0 0.0 0.01 0.47 0.01 89 1009.3
20260506073503 47 0 0.0 0.0 0.00 0.56 0.00 89 1008.4
20260506073004 47 0 0.0 0.0 0.00 0.58 0.00 89 1008.6
20260506072503 47 0 0.0 0.0 0.00 0.59 0.00 89 1008.7
20260506072003 47 0 0.0 0.0 0.00 0.60 0.00 89 1008.7
20260506071504 47 0 0.0 0.0 0.00 0.62 0.00 89 1008.6
20260506071005 47 0 0.0 0.0 0.00 0.64 0.00 89 1008.7
20260506070504 47 0 0.0 0.0 0.00 0.70 0.00 89 1008.8
20260506062503 47 0 0.0 0.0 0.00 0.83 0.00 89 1009.1
20260506062003 47 0 0.0 0.0 0.00 0.84 0.00 89 1008.6
20260506061504 47 0 0.0 0.0 0.00 0.85 0.00 89 1008.6
20260506061004 47 0 0.0 0.0 0.00 0.87 0.00 89 1008.5
20260506060504 47 0 0.0 0.0 0.00 0.89 0.00 89 1008.4